WX2DX-2 Weather Reports


time (UTC)temp
C
wind
direction
speed
KPH
gust
KPH
rain 1hr
cm
rain 24hr
cm
rain mn
cm
humidity
%
barometer
mb
20260503184524 12 319 8.0 27.4 0.00 0.00 0.00 43 1013.7
20260503183035 12 292 8.0 30.6 0.00 0.00 0.00 45 1014.1
20260503181522 12 265 11.3 33.8 0.00 0.00 0.00 45 1014.1
20260503180021 12 329 11.3 29.0 0.00 0.00 0.00 45 1014.1
20260503174520 12 226 11.3 25.7 0.00 0.00 0.00 44 1014.3
20260503173020 12 236 11.3 29.0 0.00 0.00 0.00 50 1014.3
20260503171517 12 299 8.0 22.5 0.00 0.00 0.00 44 1014.5
20260503081513 2 214 1.6 6.4 0.00 0.00 0.00 72 1014.5
20260503071510 1 274 1.6 12.9 0.00 0.00 0.00 72 1014.2
20260503060103 2 338 1.6 12.9 0.00 0.00 0.00 69 1014.2
20260503054603 2 332 1.6 14.5 0.00 0.05 0.00 68 1014.2
20260503053054 3 313 0.0 14.5 0.00 0.05 0.00 68 1014.3
20260503051551 3 281 1.6 6.4 0.00 0.05 0.00 67 1014.4
20260503050047 3 266 4.8 12.9 0.00 0.05 0.00 66 1014.4
20260503044550 3 315 4.8 16.1 0.00 0.08 0.00 65 1014.4
20260503043044 3 355 1.6 19.3 0.00 0.08 0.00 65 1014.3
20260503041547 4 251 8.0 14.5 0.00 0.08 0.00 64 1014.4
20260503040041 4 98 1.6 8.0 0.00 0.08 0.00 64 1014.3
20260503034545 4 218 3.2 12.9 0.00 0.36 0.08 65 1014.4
20260503033042 4 244 1.6 8.0 0.00 0.36 0.08 67 1014.5
20260503031547 4 237 4.8 11.3 0.00 0.36 0.08 66 1014.6
20260503030034 4 276 1.6 12.9 0.00 0.36 0.08 69 1014.7
20260503024534 5 273 6.4 16.1 0.00 0.38 0.08 68 1014.7
20260503023034 5 229 3.2 11.3 0.00 0.38 0.08 68 1014.8
20260503021533 5 238 6.4 12.9 0.00 0.38 0.08 69 1014.8
20260503020032 5 259 3.2 12.9 0.00 0.38 0.08 68 1014.7
20260503014539 5 225 3.2 14.5 0.00 0.38 0.08 69 1014.6
20260503013029 5 167 6.4 17.7 0.00 0.38 0.08 73 1014.5
20260503011530 4 282 3.2 11.3 0.00 0.38 0.08 78 1014.5
20260503010028 4 294 1.6 8.0 0.00 0.38 0.08 79 1014.4
20260503004527 5 259 1.6 8.0 0.00 0.43 0.08 77 1014.1
20260503003027 5 287 1.6 6.4 0.00 0.43 0.08 73 1013.9
20260503001526 5 272 3.2 14.5 0.00 0.43 0.08 76 1014.0
20260503000025 5 259 3.2 6.4 0.00 0.43 0.08 76 1014.0
20260502234525 5 263 4.8 14.5 0.00 0.43 0.08 75 1013.8
20260502233024 6 256 3.2 12.9 0.00 0.43 0.08 74 1013.7
20260502231524 6 250 1.6 8.0 0.00 0.43 0.08 74 1013.6
20260502230024 6 327 3.2 14.5 0.00 0.43 0.08 71 1013.6
20260502224523 6 301 3.2 11.3 0.00 0.43 0.08 72 1013.5
20260502223024 6 254 1.6 6.4 0.00 0.43 0.08 72 1013.4
20260502221522 7 318 8.0 16.1 0.00 0.43 0.08 69 1013.4
20260502220042 7 239 6.4 16.1 0.00 0.43 0.08 70 1013.4
20260502214536 7 305 1.6 12.9 0.00 0.46 0.08 72 1013.3
20260502213048 7 360 3.2 11.3 0.00 0.46 0.08 76 1013.3
20260502211544 6 279 3.2 12.9 0.00 0.46 0.08 76 1013.2
20260502210035 6 321 4.8 12.9 0.00 0.46 0.08 75 1013.2
20260502204539 6 298 1.6 14.5 0.00 0.56 0.08 76 1013.2
20260502203034 6 286 3.2 8.0 0.00 0.56 0.08 74 1013.3
20260502201534 7 318 6.4 14.5 0.00 0.56 0.08 72 1013.3
20260502200032 7 340 3.2 12.9 0.00 0.56 0.08 73 1013.3
20260502194536 7 325 3.2 9.7 0.00 0.71 0.08 70 1013.4
20260502193032 7 323 6.4 14.5 0.00 0.71 0.08 68 1013.5
20260502191536 8 296 3.2 16.1 0.00 0.71 0.08 63 1013.6
20260502190030 8 30 1.6 8.0 0.00 0.71 0.08 60 1013.6